{"data":{"norad_id":52868,"epoch":"2026-09-19T12:58:09.530112Z","epoch_age_seconds":151735,"freshness":"FRESH","line1":"1 52868U 22062AQ  26262.54038808 -.00000966  00000+0 -16783-4 0  9996","line2":"2 52868  53.1599 222.7109 0001338  94.5618 265.5538 15.35388071235346","mean_motion":15.35388071,"eccentricity":0.0001338,"inclination_deg":53.1599,"raan_deg":222.7109,"arg_perigee_deg":94.5618,"mean_anomaly_deg":265.5538,"bstar":-1.6783e-5,"rev_number":23534,"period_min":93.787364067647,"perigee_km":458.85314829693,"apogee_km":460.68297169099,"semimajor_km":6837.905059994,"source":"CELESTRAK","updated_at":"2026-09-20T09:00:40.135868Z"}}